Skip Page Navigation
NASA JPL Caltech
NASA Logo - Jet Propulsion Laboratory + View the NASA Portal
+ Center for Near-Earth Object Studies
JPL Home Earth Solar System Stars & Galaxies Technology
JPL Solar System Dynamics
BODIES ORBITS EPHEMERIDES TOOLS PHYSICAL DATA DISCOVERY FAQ SITE MAP
IMPORTANT: The SSD Announcement email list is now available. Major changes are coming in the near future, including possible hostname and/or URL changes. To be notified of such changes, subscribe to this email list.

Please visit this page for more details.


JPL Small-Body Database Browser
Search: [ help ]  
469721 (2005 LX37)
Classification: Main-belt Asteroid          SPK-ID: 2469721
Ephemeris | Orbit Diagram | Orbital Elements | Mission Design | Physical Parameters | Discovery Circumstances ]

[ show orbit diagram ]
Orbital Elements at Epoch 2458600.5 (2019-Apr-27.0) TDB
Reference: JPL 10 (heliocentric ecliptic J2000)
 Element Value Uncertainty (1-sigma)   Units 
e .205048170008591 6.0484e-08  
a 2.301551466147248 1.2018e-08 au
q 1.829622549833166 1.3827e-07 au
i 7.470405063244911 6.7487e-06 deg
node 109.4693258515888 4.6102e-05 deg
peri 183.325020653467 5.6288e-05 deg
M 320.5925831652357 2.7555e-05 deg
tp 2458740.106272009832
(2019-Sep-13.60627201)
9.7306e-05 TDB
period 1275.350224915096
3.49
9.9893e-06
2.735e-08
d
yr
n .2822754040161528 2.211e-09 deg/d
Q 2.773480382461331 1.4482e-08 au
  Orbit Determination Parameters
   # obs. used (total)      149  
   data-arc span      5222 days (14.30 yr)  
   first obs. used      2005-05-03  
   last obs. used      2019-08-20  
   planetary ephem.      DE431  
   SB-pert. ephem.      SB431-N16  
   condition code      0  
   norm. resid. RMS      .62137  
   source      ORB  
   producer      Otto Matic  
   solution date      2019-Sep-24 08:02:40  

Additional Information
 Earth MOID = .812824 au 
 Jupiter MOID = 2.41869 au 
 T_jup = 3.552 
[ show covariance matrix ]

Ephemeris | Orbit Diagram | Orbital Elements | Mission Design | Physical Parameters | Discovery Circumstances ]

Physical Parameter Table
Parameter Symbol Value Units Sigma Reference Notes
absolute magnitude H 18.3   n/a MPO392229  

469721 (2005 LX37)          Discovered 2005-May-03 by Spacewatch at Kitt Peak
Reference: Last Updated: 2016-08-22
Ephemeris | Orbit Diagram | Orbital Elements | Mission Design | Physical Parameters | Discovery Circumstances ]
ABOUT SSD CREDITS/AWARDS PRIVACY/COPYRIGHT GLOSSARY LINKS
FirstGov
(server date/time)  
NASA Home Page
Site Manager:   Ryan S. Park
Webmaster  Alan B. Chamberlin